SXS208 LTAI-OMDB

Flight info

Callsign SXS208
Flight time 3h 21m
Altitude 35000
Route ALNYA1K/18L ALNYA UN135 VESAR L620 ALSUS M978 NIKAS R785 KTN R655 TAN G202 PUSTO T231 ILMAP/N0466F370 P975 ULDUR M688 SIDAD R784 IMDAT B416 ORSAR R784 TATLA L223 VUTEB
Aircraft B738/M-SDE2E3FGHIRWXY/LB1

Departure

Time 2026-04-26 14:20
Airport Antalya International Airport (LTAI)

Arrival

Time 2026-04-26 17:42
Airport Dubai International Airport (OMDB)
Time Latitude Longitude Altitude Speed Heading
2026-04-26 13:45 36.89565 30.79801 191 ft 0 kts 186°
2026-04-26 14:09 36.89566 30.79801 191 ft 1 kts 186°
2026-04-26 14:09 36.89590 30.79802 206 ft 4 kts 165°
2026-04-26 14:10 36.89613 30.79788 201 ft 4 kts 133°
2026-04-26 14:10 36.89625 30.79762 195 ft 2 kts 96°
2026-04-26 14:10 36.89625 30.79760 206 ft 0 kts 95°
2026-04-26 14:13 36.89621 30.79793 199 ft 7 kts 98°
2026-04-26 14:14 36.89612 30.79884 191 ft 14 kts 96°
2026-04-26 14:14 36.89599 30.80024 191 ft 19 kts 96°
2026-04-26 14:14 36.89584 30.80194 191 ft 20 kts 96°
2026-04-26 14:14 36.89569 30.80362 191 ft 19 kts 96°
2026-04-26 14:15 36.89555 30.80524 191 ft 18 kts 96°
2026-04-26 14:15 36.89545 30.80654 200 ft 13 kts 88°
2026-04-26 14:15 36.89619 30.80699 192 ft 13 kts
2026-04-26 14:15 36.89707 30.80711 202 ft 13 kts
2026-04-26 14:16 36.89814 30.80725 191 ft 18 kts
2026-04-26 14:16 36.89954 30.80744 191 ft 22 kts
2026-04-26 14:16 36.90105 30.80765 191 ft 22 kts
2026-04-26 14:16 36.90250 30.80785 204 ft 21 kts
2026-04-26 14:17 36.90393 30.80804 195 ft 20 kts
2026-04-26 14:17 36.90531 30.80824 200 ft 20 kts
2026-04-26 14:17 36.90665 30.80842 203 ft 19 kts
2026-04-26 14:17 36.90795 30.80860 197 ft 18 kts
2026-04-26 14:18 36.90920 30.80877 204 ft 18 kts
2026-04-26 14:18 36.91040 30.80893 190 ft 17 kts
2026-04-26 14:18 36.91133 30.80938 201 ft 14 kts 57°
2026-04-26 14:18 36.91131 30.81055 204 ft 13 kts 98°
2026-04-26 14:19 36.91107 30.81140 198 ft 9 kts 163°
2026-04-26 14:19 36.91026 30.81129 193 ft 24 kts 186°
2026-04-26 14:19 36.90621 30.81072 189 ft 92 kts 186°
2026-04-26 14:19 36.89775 30.80956 203 ft 150 kts 186°
2026-04-26 14:20 36.88595 30.80790 428 ft 180 kts 187°
2026-04-26 14:20 36.87365 30.80707 1318 ft 175 kts 174°
2026-04-26 14:20 36.86161 30.81011 2099 ft 179 kts 165°
2026-04-26 14:20 36.84877 30.81342 2570 ft 200 kts 170°
2026-04-26 14:21 36.83455 30.81587 3032 ft 211 kts 171°
2026-04-26 14:21 36.81971 30.81854 3517 ft 219 kts 170°
2026-04-26 14:21 36.80486 30.82139 4176 ft 218 kts 170°
2026-04-26 14:21 36.78994 30.82585 4615 ft 230 kts 154°
2026-04-26 14:22 36.77520 30.83534 4910 ft 245 kts 151°
2026-04-26 14:22 36.75942 30.84560 4971 ft 265 kts 152°
2026-04-26 14:22 36.74281 30.85601 5007 ft 269 kts 152°
2026-04-26 14:22 36.72594 30.86627 5002 ft 270 kts 154°
2026-04-26 14:23 36.70891 30.87627 5006 ft 271 kts 154°
2026-04-26 14:23 36.69179 30.88623 5017 ft 272 kts 154°
2026-04-26 14:23 36.67461 30.89622 4997 ft 272 kts 154°
2026-04-26 14:23 36.65751 30.90618 4993 ft 270 kts 153°
2026-04-26 14:24 36.64069 30.91637 4995 ft 268 kts 151°
2026-04-26 14:24 36.62425 30.92733 4999 ft 267 kts 150°
2026-04-26 14:24 36.60793 30.93833 4991 ft 267 kts 150°
2026-04-26 14:24 36.59181 30.94986 5016 ft 268 kts 144°
2026-04-26 14:25 36.57661 30.96362 5534 ft 269 kts 141°
2026-04-26 14:25 36.56174 30.97746 6480 ft 266 kts 142°
2026-04-26 14:25 36.54673 30.99123 7229 ft 270 kts 142°
2026-04-26 14:25 36.53162 31.00494 7948 ft 274 kts 142°
2026-04-26 14:26 36.51628 31.01922 8683 ft 277 kts 136°
2026-04-26 14:26 36.50557 31.03890 9398 ft 278 kts 110°
2026-04-26 14:26 36.50033 31.06215 10125 ft 282 kts 102°
2026-04-26 14:26 36.49654 31.08675 10454 ft 300 kts 100°
2026-04-26 14:27 36.49274 31.11329 10625 ft 323 kts 100°
2026-04-26 14:27 36.48860 31.14162 10783 ft 344 kts 101°
2026-04-26 14:27 36.48402 31.17173 10992 ft 362 kts 101°
2026-04-26 14:27 36.47912 31.20285 11474 ft 370 kts 101°
2026-04-26 14:28 36.47409 31.23442 12139 ft 373 kts 101°
2026-04-26 14:28 36.46958 31.26623 12785 ft 376 kts 97°
2026-04-26 14:28 36.46662 31.29824 13389 ft 380 kts 95°
2026-04-26 14:28 36.46412 31.33120 13975 ft 384 kts 95°
2026-04-26 14:29 36.46165 31.36439 14563 ft 387 kts 95°
2026-04-26 14:29 36.45905 31.39781 15154 ft 390 kts 96°
2026-04-26 14:29 36.45629 31.43154 15719 ft 393 kts 96°
2026-04-26 14:29 36.45343 31.46545 16269 ft 397 kts 96°
2026-04-26 14:30 36.45049 31.49967 16817 ft 400 kts 96°
2026-04-26 14:30 36.44751 31.53415 17362 ft 403 kts 97°
2026-04-26 14:30 36.44449 31.56895 17887 ft 407 kts 97°
2026-04-26 14:30 36.44213 31.60408 18403 ft 410 kts 90°
2026-04-26 14:31 36.44447 31.63959 18878 ft 413 kts 83°
2026-04-26 14:31 36.44838 31.67506 19366 ft 415 kts 83°
2026-04-26 14:31 36.45232 31.71062 19830 ft 418 kts 83°
2026-04-26 14:31 36.45606 31.74663 20289 ft 421 kts 84°
2026-04-26 14:32 36.45952 31.78232 20738 ft 423 kts 84°
2026-04-26 14:32 36.46288 31.81878 21148 ft 427 kts 84°
2026-04-26 14:32 36.46623 31.85571 21509 ft 431 kts 84°
2026-04-26 14:32 36.46958 31.89283 21941 ft 433 kts 84°
2026-04-26 14:33 36.47538 31.92963 22347 ft 438 kts 70°
2026-04-26 14:33 36.48971 31.96328 22769 ft 441 kts 59°
2026-04-26 14:33 36.50565 31.99597 23208 ft 443 kts 61°
2026-04-26 14:33 36.52055 32.02964 23532 ft 446 kts 68°
2026-04-26 14:34 36.52762 32.06694 23850 ft 445 kts 88°
2026-04-26 14:34 36.52589 32.10526 24227 ft 444 kts 103°
2026-04-26 14:34 36.51644 32.14184 24513 ft 446 kts 111°
2026-04-26 14:34 36.50505 32.17774 24844 ft 448 kts 112°
2026-04-26 14:35 36.49336 32.21371 25171 ft 450 kts 112°
2026-04-26 14:35 36.48178 32.24945 25437 ft 453 kts 112°
2026-04-26 14:35 36.46999 32.28630 25753 ft 455 kts 112°
2026-04-26 14:35 36.45842 32.32292 26065 ft 456 kts 112°
2026-04-26 14:36 36.44686 32.35979 26353 ft 458 kts 112°
2026-04-26 14:36 36.43533 32.39669 26617 ft 460 kts 112°
2026-04-26 14:36 36.42386 32.43339 26914 ft 462 kts 112°
2026-04-26 14:36 36.41220 32.47064 27173 ft 464 kts 112°
2026-04-26 14:37 36.40048 32.50806 27436 ft 466 kts 112°
2026-04-26 14:37 36.38874 32.54547 27843 ft 464 kts 112°
2026-04-26 14:37 36.37701 32.58278 28295 ft 462 kts 113°
2026-04-26 14:37 36.36533 32.61987 28669 ft 462 kts 113°
2026-04-26 14:38 36.35365 32.65694 29063 ft 460 kts 113°
2026-04-26 14:38 36.34198 32.69388 29509 ft 458 kts 113°
2026-04-26 14:38 36.33037 32.73063 29948 ft 456 kts 114°
2026-04-26 14:38 36.32271 32.75487 30155 ft 456 kts 113°
2026-04-26 14:39 36.30732 32.80358 30480 ft 458 kts 113°
2026-04-26 14:39 36.29567 32.84041 30738 ft 458 kts 113°
2026-04-26 14:39 36.28402 32.87724 31033 ft 458 kts 113°
2026-04-26 14:39 36.27239 32.91394 31296 ft 457 kts 113°
2026-04-26 14:40 36.26074 32.95066 31532 ft 458 kts 113°
2026-04-26 14:40 36.24906 32.98743 31786 ft 459 kts 112°
2026-04-26 14:40 36.24131 33.01181 31966 ft 459 kts 112°
2026-04-26 14:40 36.22961 33.04855 32258 ft 458 kts 112°
2026-04-26 14:41 36.21791 33.08525 32514 ft 458 kts 112°
2026-04-26 14:41 36.20617 33.12204 32767 ft 459 kts 112°
2026-04-26 14:41 36.19444 33.15875 33022 ft 458 kts 112°
2026-04-26 14:41 36.17885 33.20747 33195 ft 462 kts 112°
2026-04-26 14:42 36.17083 33.23253 33291 ft 464 kts 112°
2026-04-26 14:42 36.15894 33.26959 33561 ft 463 kts 112°
2026-04-26 14:42 36.14707 33.30653 33865 ft 461 kts 112°
2026-04-26 14:42 36.13517 33.34346 34057 ft 462 kts 112°
2026-04-26 14:43 36.12340 33.37992 34188 ft 463 kts 112°
2026-04-26 14:43 36.11143 33.41696 34343 ft 464 kts 112°
2026-04-26 14:43 36.09941 33.45411 34529 ft 464 kts 112°
2026-04-26 14:43 36.08741 33.49119 34697 ft 465 kts 112°
2026-04-26 14:44 36.07536 33.52839 34844 ft 466 kts 112°
2026-04-26 14:44 36.05111 33.60309 34879 ft 469 kts 112°
2026-04-26 14:45 36.02685 33.67765 34891 ft 465 kts 112°
2026-04-26 14:45 36.00271 33.75164 34886 ft 463 kts 113°
2026-04-26 14:46 35.97864 33.82525 34880 ft 462 kts 113°
2026-04-26 14:46 35.95466 33.89843 34905 ft 465 kts 113°
2026-04-26 14:47 35.92968 33.97258 35067 ft 469 kts 119°
2026-04-26 14:47 35.91196 34.00628 35115 ft 469 kts 132°
2026-04-26 14:47 35.88922 34.03481 35301 ft 464 kts 143°
2026-04-26 14:47 35.86285 34.05733 35573 ft 458 kts 152°
2026-04-26 14:48 35.83535 34.07699 35770 ft 457 kts 153°
2026-04-26 14:48 35.80767 34.09662 35879 ft 459 kts 153°
2026-04-26 14:48 35.78012 34.11645 36006 ft 460 kts 152°
2026-04-26 14:48 35.75256 34.13663 36193 ft 459 kts 152°
2026-04-26 14:49 35.72518 34.15683 36388 ft 459 kts 152°
2026-04-26 14:49 35.69775 34.17708 36549 ft 459 kts 152°
2026-04-26 14:49 35.67033 34.19722 36686 ft 459 kts 152°
2026-04-26 14:49 35.64288 34.21726 36818 ft 458 kts 153°
2026-04-26 14:50 35.61554 34.23717 36851 ft 455 kts 153°
2026-04-26 14:50 35.56157 34.27644 36876 ft 453 kts 153°
2026-04-26 14:51 35.50680 34.31625 36889 ft 456 kts 153°
2026-04-26 14:51 35.45243 34.35574 36879 ft 457 kts 153°
2026-04-26 14:52 35.39763 34.39549 36878 ft 459 kts 153°
2026-04-26 14:52 35.34261 34.43534 36873 ft 459 kts 153°
2026-04-26 14:53 35.28761 34.47512 36867 ft 459 kts 153°
2026-04-26 14:53 35.23264 34.51480 36863 ft 458 kts 153°
2026-04-26 14:54 35.17770 34.55441 36867 ft 457 kts 153°
2026-04-26 14:54 35.12284 34.59391 36867 ft 457 kts 153°
2026-04-26 14:55 35.07143 34.63934 36846 ft 466 kts 131°
2026-04-26 14:55 35.05496 34.67360 36862 ft 474 kts 113°
2026-04-26 14:55 35.04681 34.71269 36888 ft 479 kts 97°
2026-04-26 14:55 35.04785 34.75337 36862 ft 483 kts 82°
2026-04-26 14:56 35.05385 34.79366 36896 ft 483 kts 80°
2026-04-26 14:56 35.06718 34.87383 36873 ft 486 kts 80°
2026-04-26 14:57 35.08037 34.95548 36870 ft 488 kts 81°
2026-04-26 14:57 35.09277 35.03652 36859 ft 490 kts 81°
2026-04-26 14:58 35.10504 35.11865 36885 ft 492 kts 81°
2026-04-26 14:58 35.11732 35.20114 36881 ft 494 kts 81°
2026-04-26 14:59 35.12961 35.28391 36859 ft 496 kts 81°
2026-04-26 14:59 35.14190 35.36701 36879 ft 498 kts 81°
2026-04-26 15:00 35.15417 35.45037 36882 ft 500 kts 82°
2026-04-26 15:00 35.16645 35.53419 36870 ft 501 kts 82°
2026-04-26 15:01 35.17866 35.61803 36907 ft 501 kts 82°
2026-04-26 15:01 35.19070 35.70094 36884 ft 494 kts 82°
2026-04-26 15:02 35.20261 35.78344 36863 ft 490 kts 82°
2026-04-26 15:02 35.21452 35.86579 36903 ft 494 kts 82°
2026-04-26 15:02 35.21942 35.90739 36882 ft 494 kts 93°
2026-04-26 15:03 35.21513 35.94854 36917 ft 485 kts 111°
2026-04-26 15:03 35.20269 35.98651 36892 ft 479 kts 125°
2026-04-26 15:03 35.18379 36.01883 36922 ft 470 kts 137°
2026-04-26 15:04 35.13875 36.07726 36921 ft 474 kts 139°
2026-04-26 15:04 35.09309 36.13505 36908 ft 470 kts 139°
2026-04-26 15:05 35.04845 36.19265 36900 ft 463 kts 139°
2026-04-26 15:05 35.00437 36.24999 36896 ft 462 kts 139°
2026-04-26 15:06 34.96077 36.30672 36905 ft 461 kts 139°
2026-04-26 15:06 34.91688 36.36374 36915 ft 461 kts 139°
2026-04-26 15:07 34.85073 36.44942 36919 ft 463 kts 139°
2026-04-26 15:07 34.80644 36.50668 36911 ft 466 kts 140°
2026-04-26 15:08 34.76181 36.56430 36944 ft 469 kts 140°
2026-04-26 15:08 34.71689 36.62222 36928 ft 472 kts 140°
2026-04-26 15:09 34.67166 36.68036 36937 ft 474 kts 140°
2026-04-26 15:09 34.62639 36.73835 36941 ft 476 kts 140°
2026-04-26 15:10 34.58820 36.78721 36947 ft 477 kts 140°
2026-04-26 15:10 34.53506 36.85513 36953 ft 477 kts 140°
2026-04-26 15:11 34.48937 36.91345 36942 ft 476 kts 140°
2026-04-26 15:11 34.44370 36.97162 36968 ft 475 kts 140°
2026-04-26 15:12 34.39811 37.02959 36965 ft 473 kts 141°
2026-04-26 15:12 34.35267 37.08728 36963 ft 472 kts 141°
2026-04-26 15:13 34.30731 37.14475 36972 ft 472 kts 141°
2026-04-26 15:13 34.26224 37.20179 36970 ft 471 kts 141°
2026-04-26 15:14 34.21711 37.25929 36953 ft 474 kts 137°
2026-04-26 15:14 34.17949 37.32588 36977 ft 483 kts 128°
2026-04-26 15:15 34.14448 37.39548 36980 ft 485 kts 128°
2026-04-26 15:15 34.10911 37.46494 36957 ft 486 kts 128°
2026-04-26 15:16 34.07321 37.53437 36969 ft 488 kts 129°
2026-04-26 15:16 34.03708 37.60383 36976 ft 490 kts 129°
2026-04-26 15:17 34.00688 37.66180 36977 ft 492 kts 129°
2026-04-26 15:17 33.96445 37.74319 36950 ft 494 kts 129°
2026-04-26 15:18 33.92775 37.81348 36975 ft 496 kts 129°
2026-04-26 15:18 33.89094 37.88383 36976 ft 498 kts 129°
2026-04-26 15:19 33.85388 37.95443 36945 ft 499 kts 129°
2026-04-26 15:19 33.81674 38.02485 36964 ft 498 kts 129°
2026-04-26 15:20 33.77947 38.09538 36972 ft 498 kts 129°
2026-04-26 15:20 33.74229 38.16566 36974 ft 498 kts 129°
2026-04-26 15:21 33.70536 38.23534 36971 ft 496 kts 129°
2026-04-26 15:21 33.66822 38.30527 36971 ft 496 kts 129°
2026-04-26 15:22 33.63111 38.37502 36971 ft 495 kts 129°
2026-04-26 15:22 33.59400 38.44464 36986 ft 494 kts 129°
2026-04-26 15:23 33.55712 38.51370 36966 ft 494 kts 129°
2026-04-26 15:23 33.52002 38.58307 36964 ft 494 kts 129°
2026-04-26 15:24 33.48893 38.65723 36981 ft 506 kts 112°
2026-04-26 15:24 33.47687 38.74096 36977 ft 515 kts 95°
2026-04-26 15:25 33.47507 38.81240 36972 ft 517 kts 94°
2026-04-26 15:25 33.47270 38.89837 36956 ft 517 kts 96°
2026-04-26 15:26 33.46934 38.98450 36971 ft 518 kts 96°
2026-04-26 15:26 33.46632 39.07100 36959 ft 520 kts 95°
2026-04-26 15:27 33.46468 39.15784 36948 ft 523 kts 94°
2026-04-26 15:27 33.46312 39.24499 36982 ft 524 kts 94°
2026-04-26 15:28 33.46127 39.33248 36969 ft 526 kts 94°
2026-04-26 15:28 33.45924 39.42014 36957 ft 526 kts 95°
2026-04-26 15:29 33.45715 39.50774 36956 ft 526 kts 95°
2026-04-26 15:30 33.45282 39.68236 36950 ft 526 kts 95°
2026-04-26 15:30 33.45056 39.76991 36950 ft 526 kts 95°
2026-04-26 15:31 33.44706 39.90128 36946 ft 527 kts 95°
2026-04-26 15:32 33.44383 40.01809 36942 ft 528 kts 95°
2026-04-26 15:32 33.44089 40.12106 36929 ft 529 kts 95°
2026-04-26 15:33 33.43832 40.20929 36933 ft 530 kts 95°
2026-04-26 15:33 33.43570 40.29694 36923 ft 530 kts 95°
2026-04-26 15:34 33.43300 40.38525 36940 ft 531 kts 95°
2026-04-26 15:34 33.43024 40.47377 36922 ft 531 kts 95°
2026-04-26 15:35 33.42741 40.56220 36919 ft 530 kts 95°
2026-04-26 15:35 33.42454 40.65029 36913 ft 528 kts 95°
2026-04-26 15:36 33.42161 40.73796 36920 ft 527 kts 95°
2026-04-26 15:36 33.41862 40.82553 36920 ft 525 kts 95°
2026-04-26 15:37 33.41561 40.91222 36906 ft 524 kts 95°
2026-04-26 15:37 33.41252 40.99914 36922 ft 522 kts 95°
2026-04-26 15:38 33.40937 41.08602 36921 ft 521 kts 95°
2026-04-26 15:38 33.40618 41.17263 36904 ft 521 kts 95°
2026-04-26 15:39 33.40292 41.25907 36921 ft 520 kts 95°
2026-04-26 15:39 33.40017 41.33106 36923 ft 521 kts 96°
2026-04-26 15:40 33.39622 41.43239 36929 ft 522 kts 96°
2026-04-26 15:40 33.39278 41.51898 36946 ft 524 kts 95°
2026-04-26 15:41 33.38926 41.60640 36923 ft 526 kts 96°
2026-04-26 15:41 33.38567 41.69391 36930 ft 527 kts 96°
2026-04-26 15:42 33.38208 41.78167 36907 ft 528 kts 95°
2026-04-26 15:42 33.37935 41.86946 36922 ft 528 kts 95°
2026-04-26 15:43 33.37689 41.95730 36923 ft 528 kts 95°
2026-04-26 15:44 33.37290 42.08841 36920 ft 528 kts 95°
2026-04-26 15:44 33.36861 42.21994 36899 ft 527 kts 95°
2026-04-26 15:45 33.36421 42.35109 36917 ft 525 kts 95°
2026-04-26 15:46 33.35969 42.48190 36907 ft 524 kts 95°
2026-04-26 15:46 33.35713 42.55423 36933 ft 523 kts 95°
2026-04-26 15:47 33.35131 42.69895 36891 ft 521 kts 101°
2026-04-26 15:48 33.33301 42.78156 36909 ft 509 kts 119°
2026-04-26 15:48 33.29929 42.85469 36915 ft 500 kts 128°
2026-04-26 15:49 33.26290 42.92575 36904 ft 502 kts 128°
2026-04-26 15:49 33.22697 42.99692 36905 ft 505 kts 128°
2026-04-26 15:50 33.19085 43.06923 36895 ft 506 kts 128°
2026-04-26 15:50 33.15466 43.14169 36899 ft 508 kts 128°
2026-04-26 15:51 33.11849 43.21390 36895 ft 510 kts 128°
2026-04-26 15:51 33.08200 43.28655 36884 ft 511 kts 128°
2026-04-26 15:52 33.04543 43.35923 36892 ft 511 kts 128°
2026-04-26 15:52 33.00879 43.43190 36859 ft 512 kts 128°
2026-04-26 15:53 32.97210 43.50448 36880 ft 510 kts 128°
2026-04-26 15:53 32.93525 43.57656 36880 ft 508 kts 128°
2026-04-26 15:54 32.89864 43.64789 36869 ft 507 kts 128°
2026-04-26 15:54 32.86191 43.71940 36891 ft 506 kts 128°
2026-04-26 15:55 32.82524 43.79071 36875 ft 505 kts 128°
2026-04-26 15:55 32.78851 43.86202 36867 ft 504 kts 128°
2026-04-26 15:56 32.75186 43.93302 36869 ft 504 kts 128°
2026-04-26 15:56 32.71517 44.00397 36877 ft 505 kts 128°
2026-04-26 15:57 32.67849 44.07476 36876 ft 507 kts 128°
2026-04-26 15:57 32.64142 44.14615 36893 ft 509 kts 128°
2026-04-26 15:58 32.60404 44.21801 36891 ft 513 kts 128°
2026-04-26 15:58 32.56644 44.29019 36881 ft 516 kts 128°
2026-04-26 15:59 32.52854 44.36279 36888 ft 519 kts 128°
2026-04-26 15:59 32.49046 44.43561 36865 ft 521 kts 128°
2026-04-26 16:00 32.45247 44.50813 36877 ft 521 kts 128°
2026-04-26 16:00 32.41416 44.58112 36881 ft 521 kts 128°
2026-04-26 16:01 32.37587 44.65395 36886 ft 520 kts 128°
2026-04-26 16:01 32.34035 44.72870 36879 ft 522 kts 123°
2026-04-26 16:02 32.30775 44.80544 36871 ft 522 kts 122°
2026-04-26 16:02 32.27527 44.88201 36873 ft 519 kts 123°
2026-04-26 16:03 32.24264 44.95732 36869 ft 517 kts 123°
2026-04-26 16:03 32.20955 45.03287 36862 ft 516 kts 123°
2026-04-26 16:04 32.17656 45.10796 36869 ft 515 kts 123°
2026-04-26 16:04 32.14362 45.18285 36864 ft 514 kts 123°
2026-04-26 16:05 32.11057 45.25789 36883 ft 514 kts 124°
2026-04-26 16:05 32.07753 45.33276 36885 ft 515 kts 124°
2026-04-26 16:06 32.04453 45.40738 36867 ft 517 kts 124°
2026-04-26 16:06 32.01120 45.48262 36887 ft 518 kts 124°
2026-04-26 16:07 31.97773 45.55801 36895 ft 519 kts 124°
2026-04-26 16:07 31.94412 45.63356 36906 ft 521 kts 124°
2026-04-26 16:08 31.91061 45.70872 36898 ft 522 kts 124°
2026-04-26 16:08 31.87686 45.78429 36910 ft 522 kts 124°
2026-04-26 16:09 31.84308 45.85977 36901 ft 521 kts 124°
2026-04-26 16:09 31.80932 45.93506 36913 ft 520 kts 124°
2026-04-26 16:10 31.77547 46.01040 36911 ft 520 kts 124°
2026-04-26 16:10 31.74169 46.08555 36913 ft 519 kts 124°
2026-04-26 16:11 31.70874 46.16051 36918 ft 519 kts 124°
2026-04-26 16:11 31.67581 46.23602 36912 ft 519 kts 123°
2026-04-26 16:12 31.64273 46.31152 36917 ft 519 kts 124°
2026-04-26 16:12 31.59295 46.42450 36895 ft 520 kts 124°
2026-04-26 16:13 31.55964 46.49989 36894 ft 520 kts 124°
2026-04-26 16:13 31.52628 46.57525 36880 ft 521 kts 124°
2026-04-26 16:14 31.49304 46.65021 36887 ft 522 kts 124°
2026-04-26 16:15 31.44270 46.76344 36853 ft 523 kts 124°
2026-04-26 16:15 31.41474 46.82620 36876 ft 523 kts 124°
2026-04-26 16:16 31.36272 46.93826 36868 ft 516 kts 133°
2026-04-26 16:16 31.31577 46.99922 36889 ft 497 kts 147°
2026-04-26 16:17 31.26381 47.05294 36882 ft 499 kts 147°
2026-04-26 16:17 31.21188 47.10706 36886 ft 502 kts 147°
2026-04-26 16:18 31.13399 47.18936 36886 ft 505 kts 147°
2026-04-26 16:19 31.05598 47.27184 36858 ft 508 kts 147°
2026-04-26 16:20 30.97721 47.35484 36886 ft 509 kts 147°
2026-04-26 16:20 30.89817 47.43794 36871 ft 510 kts 147°
2026-04-26 16:21 30.84551 47.49321 36884 ft 510 kts 147°
2026-04-26 16:21 30.79282 47.54835 36905 ft 509 kts 147°
2026-04-26 16:22 30.74018 47.60334 36897 ft 508 kts 147°
2026-04-26 16:22 30.68788 47.65791 36887 ft 508 kts 147°
2026-04-26 16:23 30.63538 47.71263 36882 ft 507 kts 147°
2026-04-26 16:23 30.58296 47.76718 36885 ft 505 kts 147°
2026-04-26 16:24 30.53060 47.82158 36908 ft 505 kts 147°
2026-04-26 16:24 30.47825 47.87589 36903 ft 505 kts 147°
2026-04-26 16:25 30.42588 47.93013 36880 ft 505 kts 147°
2026-04-26 16:25 30.37341 47.98440 36882 ft 505 kts 147°
2026-04-26 16:26 30.32086 48.03866 36855 ft 507 kts 147°
2026-04-26 16:26 30.26838 48.09277 36871 ft 508 kts 147°
2026-04-26 16:27 30.21557 48.14715 36915 ft 510 kts 147°
2026-04-26 16:27 30.16242 48.20180 36883 ft 511 kts 147°
2026-04-26 16:28 30.10922 48.25643 36919 ft 512 kts 147°
2026-04-26 16:28 30.05589 48.31110 36920 ft 513 kts 147°
2026-04-26 16:29 30.00280 48.36546 36897 ft 514 kts 147°
2026-04-26 16:29 29.94934 48.42011 36914 ft 514 kts 147°
2026-04-26 16:30 29.89578 48.47479 36923 ft 514 kts 147°
2026-04-26 16:30 29.84451 48.53290 36922 ft 522 kts 139°
2026-04-26 16:31 29.79716 48.59651 36920 ft 523 kts 137°
2026-04-26 16:31 29.75001 48.66031 36925 ft 523 kts 138°
2026-04-26 16:32 29.71042 48.71279 36906 ft 522 kts 139°
2026-04-26 16:32 29.65444 48.78612 36919 ft 521 kts 139°
2026-04-26 16:33 29.60659 48.84869 36926 ft 521 kts 139°
2026-04-26 16:33 29.55875 48.91123 36899 ft 521 kts 139°
2026-04-26 16:34 29.51128 48.97324 36922 ft 521 kts 139°
2026-04-26 16:34 29.46342 49.03564 36930 ft 521 kts 139°
2026-04-26 16:35 29.41565 49.09824 36928 ft 522 kts 139°
2026-04-26 16:35 29.36790 49.16099 36932 ft 522 kts 139°
2026-04-26 16:36 29.31999 49.22383 36939 ft 522 kts 139°
2026-04-26 16:36 29.27209 49.28650 36933 ft 523 kts 139°
2026-04-26 16:37 29.22437 49.34882 36938 ft 523 kts 139°
2026-04-26 16:37 29.17634 49.41148 36932 ft 524 kts 139°
2026-04-26 16:38 29.12826 49.47411 36901 ft 524 kts 139°
2026-04-26 16:38 29.08011 49.53673 36933 ft 523 kts 139°
2026-04-26 16:39 29.03097 49.59775 36939 ft 521 kts 141°
2026-04-26 16:39 28.98110 49.65778 36937 ft 521 kts 141°
2026-04-26 16:40 28.93132 49.71790 36935 ft 521 kts 141°
2026-04-26 16:40 28.88172 49.77814 36947 ft 521 kts 141°
2026-04-26 16:41 28.83201 49.83856 36937 ft 522 kts 141°
2026-04-26 16:41 28.78262 49.89848 36933 ft 522 kts 141°
2026-04-26 16:42 28.73286 49.95872 36926 ft 522 kts 141°
2026-04-26 16:42 28.68305 50.01894 36946 ft 522 kts 141°
2026-04-26 16:43 28.63317 50.07916 36945 ft 522 kts 141°
2026-04-26 16:43 28.58328 50.13932 36942 ft 522 kts 141°
2026-04-26 16:44 28.53328 50.19931 36949 ft 522 kts 141°
2026-04-26 16:44 28.48266 50.25857 36933 ft 522 kts 142°
2026-04-26 16:45 28.43184 50.31762 36935 ft 522 kts 142°
2026-04-26 16:45 28.38115 50.37664 36938 ft 522 kts 142°
2026-04-26 16:46 28.33042 50.43574 36925 ft 523 kts 141°
2026-04-26 16:46 28.27997 50.49448 36939 ft 523 kts 141°
2026-04-26 16:47 28.22919 50.55351 36937 ft 523 kts 141°
2026-04-26 16:47 28.17830 50.61256 36916 ft 523 kts 141°
2026-04-26 16:48 28.12743 50.67151 36934 ft 523 kts 141°
2026-04-26 16:48 28.07652 50.73041 36937 ft 523 kts 141°
2026-04-26 16:49 28.02555 50.78931 36935 ft 524 kts 141°
2026-04-26 16:49 27.97454 50.84817 36929 ft 524 kts 141°
2026-04-26 16:50 27.92349 50.90698 36933 ft 524 kts 141°
2026-04-26 16:50 27.87266 50.96546 36932 ft 524 kts 141°
2026-04-26 16:51 27.82159 51.02414 36924 ft 524 kts 141°
2026-04-26 16:51 27.77041 51.08287 36927 ft 524 kts 141°
2026-04-26 16:52 27.72790 51.13160 36928 ft 524 kts 141°
2026-04-26 16:52 27.67033 51.20270 36907 ft 533 kts 129°
2026-04-26 16:53 27.63058 51.27353 36922 ft 535 kts 126°
2026-04-26 16:53 27.59166 51.34509 36930 ft 534 kts 127°
2026-04-26 16:54 27.55227 51.41610 36922 ft 534 kts 127°
2026-04-26 16:54 27.51278 51.48625 36912 ft 532 kts 127°
2026-04-26 16:55 27.47308 51.55650 36914 ft 532 kts 127°
2026-04-26 16:55 27.43331 51.62685 36919 ft 531 kts 127°
2026-04-26 16:56 27.37376 51.73208 36894 ft 530 kts 127°
2026-04-26 16:57 27.33415 51.80195 36909 ft 530 kts 127°
2026-04-26 16:57 27.27465 51.90666 36910 ft 529 kts 127°
2026-04-26 16:58 27.24835 51.95290 36912 ft 529 kts 127°
2026-04-26 16:59 27.17559 52.08040 36916 ft 529 kts 127°
2026-04-26 17:00 27.09585 52.21942 36922 ft 530 kts 127°
2026-04-26 17:00 27.03583 52.32372 36909 ft 530 kts 127°
2026-04-26 17:01 26.99575 52.39313 36914 ft 530 kts 127°
2026-04-26 17:01 26.95558 52.46263 36912 ft 531 kts 127°
2026-04-26 17:02 26.91542 52.53204 36896 ft 531 kts 127°
2026-04-26 17:02 26.87521 52.60141 36904 ft 531 kts 127°
2026-04-26 17:03 26.84177 52.65904 36909 ft 531 kts 127°
2026-04-26 17:03 26.79493 52.73963 36903 ft 531 kts 127°
2026-04-26 17:04 26.75456 52.80895 36882 ft 531 kts 127°
2026-04-26 17:04 26.72110 52.86636 36892 ft 530 kts 127°
2026-04-26 17:05 26.68079 52.93539 36898 ft 530 kts 127°
2026-04-26 17:05 26.64044 53.00440 36897 ft 529 kts 127°
2026-04-26 17:06 26.60012 53.07327 36873 ft 529 kts 127°
2026-04-26 17:06 26.56005 53.14160 36893 ft 528 kts 127°
2026-04-26 17:07 26.51950 53.21048 36891 ft 528 kts 127°
2026-04-26 17:07 26.47916 53.27886 36896 ft 527 kts 127°
2026-04-26 17:08 26.43906 53.34678 36866 ft 527 kts 126°
2026-04-26 17:08 26.39867 53.41510 36642 ft 531 kts 126°
2026-04-26 17:09 26.37832 53.44948 36391 ft 528 kts 126°
2026-04-26 17:09 26.36491 53.47214 36057 ft 528 kts 127°
2026-04-26 17:09 26.33795 53.51767 35328 ft 526 kts 127°
2026-04-26 17:09 26.31765 53.55188 34661 ft 529 kts 127°
2026-04-26 17:10 26.29729 53.58611 33992 ft 532 kts 127°
2026-04-26 17:10 26.27676 53.62054 33215 ft 535 kts 127°
2026-04-26 17:10 26.25617 53.65506 32516 ft 535 kts 127°
2026-04-26 17:10 26.23558 53.68957 31800 ft 535 kts 127°
2026-04-26 17:11 26.21527 53.72360 31096 ft 534 kts 127°
2026-04-26 17:11 26.19465 53.75812 30374 ft 533 kts 127°
2026-04-26 17:11 26.17426 53.79227 29881 ft 526 kts 127°
2026-04-26 17:11 26.15414 53.82594 29343 ft 519 kts 127°
2026-04-26 17:12 26.11439 53.89233 27980 ft 512 kts 127°
2026-04-26 17:12 26.09470 53.92515 27353 ft 508 kts 127°
2026-04-26 17:13 26.05766 53.99114 26296 ft 499 kts 122°
2026-04-26 17:13 26.04165 54.02507 25773 ft 494 kts 120°
2026-04-26 17:13 26.01086 54.09267 24691 ft 486 kts 120°
2026-04-26 17:14 25.99544 54.12595 24175 ft 481 kts 121°
2026-04-26 17:14 25.96484 54.19069 23133 ft 472 kts 121°
2026-04-26 17:14 25.94957 54.22276 22600 ft 466 kts 121°
2026-04-26 17:15 25.91982 54.28563 21671 ft 454 kts 120°
2026-04-26 17:15 25.90769 54.31805 21093 ft 453 kts 112°
2026-04-26 17:15 25.89782 54.35118 20574 ft 450 kts 110°
2026-04-26 17:16 25.88826 54.38357 20100 ft 445 kts 111°
2026-04-26 17:16 25.87834 54.41588 19619 ft 440 kts 111°
2026-04-26 17:16 25.86830 54.44778 19132 ft 435 kts 111°
2026-04-26 17:16 25.85826 54.47933 18651 ft 431 kts 111°
2026-04-26 17:17 25.84832 54.51058 18197 ft 427 kts 111°
2026-04-26 17:17 25.83846 54.54159 17655 ft 423 kts 111°
2026-04-26 17:17 25.82873 54.57225 17105 ft 420 kts 111°
2026-04-26 17:17 25.81906 54.60272 16578 ft 417 kts 111°
2026-04-26 17:18 25.80940 54.63300 16068 ft 413 kts 112°
2026-04-26 17:18 25.79727 54.66148 15583 ft 407 kts 123°
2026-04-26 17:18 25.78097 54.68697 15059 ft 402 kts 133°
2026-04-26 17:18 25.76139 54.70887 14642 ft 395 kts 139°
2026-04-26 17:19 25.72250 54.74903 14453 ft 369 kts 139°
2026-04-26 17:19 25.70412 54.76818 14379 ft 357 kts 139°
2026-04-26 17:19 25.68633 54.78683 14299 ft 345 kts 139°
2026-04-26 17:20 25.66917 54.80488 14218 ft 335 kts 139°
2026-04-26 17:20 25.65808 54.81657 14176 ft 328 kts 139°
2026-04-26 17:20 25.63664 54.83913 14085 ft 315 kts 140°
2026-04-26 17:20 25.62099 54.85562 14008 ft 305 kts 139°
2026-04-26 17:21 25.60813 54.87417 13767 ft 306 kts 117°
2026-04-26 17:21 25.59964 54.89578 13444 ft 307 kts 114°
2026-04-26 17:21 25.59143 54.91753 13135 ft 306 kts 114°
2026-04-26 17:21 25.58317 54.93928 12868 ft 305 kts 114°
2026-04-26 17:22 25.57486 54.96080 12597 ft 303 kts 114°
2026-04-26 17:22 25.56650 54.98219 12288 ft 303 kts 114°
2026-04-26 17:22 25.55811 55.00353 12008 ft 302 kts 114°
2026-04-26 17:22 25.54970 55.02486 11739 ft 301 kts 114°
2026-04-26 17:23 25.54076 55.04573 11467 ft 299 kts 120°
2026-04-26 17:23 25.53049 55.06568 11207 ft 298 kts 121°
2026-04-26 17:23 25.51991 55.08549 10769 ft 303 kts 121°
2026-04-26 17:23 25.50904 55.10589 10148 ft 317 kts 121°
2026-04-26 17:24 25.49791 55.12703 9815 ft 318 kts 121°
2026-04-26 17:24 25.48686 55.14822 9547 ft 316 kts 120°
2026-04-26 17:24 25.47598 55.16915 9262 ft 313 kts 120°
2026-04-26 17:24 25.46512 55.19004 8955 ft 312 kts 120°
2026-04-26 17:25 25.45315 55.20988 8669 ft 309 kts 130°
2026-04-26 17:25 25.43885 55.22759 8357 ft 308 kts 134°
2026-04-26 17:25 25.42414 55.24475 8059 ft 307 kts 134°
2026-04-26 17:25 25.40950 55.26199 8009 ft 309 kts 133°
2026-04-26 17:26 25.39490 55.27955 7989 ft 310 kts 133°
2026-04-26 17:26 25.38048 55.29714 7980 ft 308 kts 132°
2026-04-26 17:26 25.36613 55.31473 7987 ft 308 kts 132°
2026-04-26 17:26 25.35212 55.33270 7989 ft 309 kts 126°
2026-04-26 17:27 25.34040 55.35265 8005 ft 309 kts 120°
2026-04-26 17:27 25.32953 55.37315 8002 ft 310 kts 120°
2026-04-26 17:27 25.31861 55.39380 8003 ft 310 kts 120°
2026-04-26 17:27 25.30758 55.41429 8000 ft 310 kts 120°
2026-04-26 17:28 25.29657 55.43472 7993 ft 310 kts 120°
2026-04-26 17:28 25.28559 55.45517 7997 ft 309 kts 120°
2026-04-26 17:28 25.27462 55.47561 7990 ft 308 kts 120°
2026-04-26 17:28 25.26368 55.49593 7993 ft 307 kts 120°
2026-04-26 17:29 25.25289 55.51592 7997 ft 307 kts 120°
2026-04-26 17:29 25.24552 55.52960 8004 ft 306 kts 120°
2026-04-26 17:29 25.23109 55.55634 7999 ft 306 kts 120°
2026-04-26 17:29 25.22016 55.57653 8000 ft 306 kts 120°
2026-04-26 17:30 25.20922 55.59671 8000 ft 306 kts 120°
2026-04-26 17:30 25.19824 55.61696 8000 ft 307 kts 120°
2026-04-26 17:30 25.18728 55.63721 8002 ft 307 kts 120°
2026-04-26 17:30 25.17625 55.65758 8004 ft 309 kts 120°
2026-04-26 17:31 25.16501 55.67829 7581 ft 321 kts 120°
2026-04-26 17:31 25.15346 55.69953 7129 ft 325 kts 120°
2026-04-26 17:31 25.14208 55.72040 7018 ft 309 kts 120°
2026-04-26 17:31 25.13128 55.74015 6904 ft 294 kts 120°
2026-04-26 17:32 25.12095 55.75899 6793 ft 280 kts 120°
2026-04-26 17:32 25.10866 55.77478 6664 ft 266 kts 147°
2026-04-26 17:32 25.09210 55.78218 6450 ft 252 kts 177°
2026-04-26 17:32 25.07531 55.77990 6061 ft 240 kts 208°
2026-04-26 17:33 25.06274 55.76915 5582 ft 227 kts 239°
2026-04-26 17:33 25.05699 55.75341 5091 ft 218 kts 266°
2026-04-26 17:33 25.05759 55.73723 4601 ft 213 kts 287°
2026-04-26 17:34 25.06986 55.70781 3626 ft 209 kts 298°
2026-04-26 17:34 25.07626 55.69354 3186 ft 206 kts 296°
2026-04-26 17:34 25.08265 55.67923 3076 ft 205 kts 296°
2026-04-26 17:34 25.08872 55.66562 3006 ft 190 kts 296°
2026-04-26 17:35 25.09434 55.65299 2855 ft 178 kts 296°
2026-04-26 17:35 25.09976 55.64083 2534 ft 175 kts 296°
2026-04-26 17:35 25.10548 55.62908 2207 ft 173 kts 300°
2026-04-26 17:35 25.11181 55.61780 2065 ft 175 kts 301°
2026-04-26 17:36 25.11821 55.60642 2028 ft 177 kts 301°
2026-04-26 17:36 25.12464 55.59496 2008 ft 173 kts 301°
2026-04-26 17:36 25.13091 55.58374 1995 ft 172 kts 301°
2026-04-26 17:36 25.13719 55.57249 2006 ft 173 kts 301°
2026-04-26 17:37 25.14364 55.56127 1995 ft 173 kts 301°
2026-04-26 17:37 25.14996 55.55004 1997 ft 172 kts 301°
2026-04-26 17:37 25.15618 55.53881 1993 ft 171 kts 301°
2026-04-26 17:38 25.16861 55.51635 1992 ft 170 kts 301°
2026-04-26 17:38 25.17451 55.50570 1969 ft 154 kts 301°
2026-04-26 17:38 25.17996 55.49586 2000 ft 149 kts 300°
2026-04-26 17:38 25.18540 55.48603 1976 ft 151 kts 300°
2026-04-26 17:39 25.19086 55.47617 1791 ft 147 kts 301°
2026-04-26 17:39 25.19606 55.46679 1626 ft 137 kts 301°
2026-04-26 17:39 25.20082 55.45820 1439 ft 133 kts 301°
2026-04-26 17:39 25.20574 55.44931 1272 ft 137 kts 300°
2026-04-26 17:40 25.21073 55.44031 1069 ft 138 kts 300°
2026-04-26 17:40 25.21242 55.43726 1006 ft 137 kts 300°
2026-04-26 17:40 25.22100 55.42178 661 ft 149 kts 300°
2026-04-26 17:40 25.22636 55.41198 455 ft 149 kts 300°
2026-04-26 17:41 25.23169 55.40236 205 ft 143 kts 301°
2026-04-26 17:41 25.23673 55.39333 49 ft 134 kts 301°
2026-04-26 17:41 25.24120 55.38529 23 ft 107 kts 302°
2026-04-26 17:41 25.24430 55.37974 21 ft 64 kts 301°
2026-04-26 17:42 25.24572 55.37703 21 ft 28 kts 292°
2026-04-26 17:42 25.24612 55.37525 21 ft 16 kts 275°
2026-04-26 17:42 25.24617 55.37402 21 ft 16 kts 271°
2026-04-26 17:42 25.24624 55.37285 21 ft 15 kts 281°
2026-04-26 17:43 25.24631 55.37258 21 ft 0 kts 289°
2026-04-26 17:43 25.24639 55.37239 21 ft 7 kts 296°
2026-04-26 17:43 25.24674 55.37173 21 ft 12 kts 301°
2026-04-26 17:43 25.24716 55.37097 22 ft 11 kts 301°
2026-04-26 17:44 25.24756 55.37025 23 ft 11 kts 302°
2026-04-26 17:44 25.24796 55.36954 21 ft 11 kts 302°
2026-04-26 17:44 25.24831 55.36883 21 ft 10 kts 298°
2026-04-26 17:44 25.24855 55.36809 21 ft 10 kts 282°
2026-04-26 17:45 25.24870 55.36734 21 ft 10 kts 283°
2026-04-26 17:45 25.24892 55.36663 21 ft 10 kts 296°
2026-04-26 17:45 25.24926 55.36601 21 ft 10 kts 303°
2026-04-26 17:45 25.24967 55.36525 21 ft 14 kts 300°
2026-04-26 17:46 25.25023 55.36422 21 ft 18 kts 301°
2026-04-26 17:46 25.25094 55.36294 21 ft 21 kts 301°
2026-04-26 17:46 25.25169 55.36159 21 ft 21 kts 301°
2026-04-26 17:46 25.25243 55.36026 23 ft 20 kts 302°
2026-04-26 17:47 25.25314 55.35897 23 ft 19 kts 302°
2026-04-26 17:47 25.25338 55.35855 21 ft 19 kts 301°
2026-04-26 17:47 25.25450 55.35653 22 ft 18 kts 300°
2026-04-26 17:47 25.25514 55.35536 21 ft 17 kts 301°
2026-04-26 17:48 25.25576 55.35424 23 ft 17 kts 301°
2026-04-26 17:48 25.25637 55.35316 21 ft 16 kts 301°
2026-04-26 17:48 25.25695 55.35210 21 ft 17 kts 302°
2026-04-26 17:48 25.25754 55.35103 22 ft 16 kts 300°
2026-04-26 17:49 25.25808 55.35001 22 ft 15 kts 301°
2026-04-26 17:49 25.25870 55.34888 21 ft 19 kts 302°
2026-04-26 17:49 25.25941 55.34761 22 ft 19 kts 302°
2026-04-26 17:49 25.26009 55.34637 23 ft 15 kts 301°
2026-04-26 17:50 25.26057 55.34550 21 ft 13 kts 301°
2026-04-26 17:50 25.26099 55.34474 21 ft 9 kts 301°
2026-04-26 17:50 25.26132 55.34414 24 ft 9 kts 302°
2026-04-26 17:50 25.26141 55.34366 21 ft 6 kts 232°
2026-04-26 17:51 25.26103 55.34341 21 ft 6 kts 211°
2026-04-26 17:51 25.26066 55.34316 21 ft 6 kts 210°
2026-04-26 17:51 25.26029 55.34292 21 ft 5 kts 209°
2026-04-26 17:51 25.26015 55.34283 21 ft 2 kts 211°
2026-04-26 17:52 25.26003 55.34275 22 ft 2 kts 212°
2026-04-26 17:52 25.26001 55.34274 24 ft 0 kts 212°